TARTU/ULENURME current weather conditions

sailwx.info

Wind from 110 at 11 knots

Air temperature -3.0° C
Visibility: greater than 5.4 NM
Dewpoint -10.0° C

Last reported at 2014-Oct-22 20:50 UTC.
Time now 2014-Oct-22 23:09 UTC

Location: N 58°18' E 026°44'.
View on Google Maps.

See reports from other nearby stations

  
Tides and Currents Weather Stations Pressure Air Temp Water Temp Dewpoint Dewpoint Depression Visibility Wind Speed Wind Dir Waves Ship Positions
date/time (UTC)wind fromknots sea level pressurealtimeterstation pressurevisibilityair tempwater tempwave heightnotes
2014-Oct-22 21:50 090 7 5.4-5.0
2014-Oct-22 20:50 110 11 5.4-3.0
2014-Oct-22 19:50 100 11 5.4-3.0
2014-Oct-22 18:50 080 10 5.4-3.0
2014-Oct-22 17:50 070 7 5.4-3.0
2014-Oct-22 16:50 060 6 5.4-3.0
2014-Oct-22 15:50 060 5 -3.0
2014-Oct-22 14:50 060 8 5.4-2.0
2014-Oct-22 13:50 060 9 5.4-1.0
2014-Oct-22 12:50 070 10 -1.0
2014-Oct-22 11:50 080 10 5.4-1.0
2014-Oct-22 10:50 080 12 5.4-1.0
2014-Oct-22 09:50 070 12 5.4-1.0
2014-Oct-22 08:50 070 11 5.4-2.0
2014-Oct-22 07:50 080 11 5.4-2.0
2014-Oct-22 06:50 080 13 5.4-3.0
2014-Oct-22 05:50 100 14 5.4-3.0
2014-Oct-22 04:50 070 13 5.4-3.0
2014-Oct-22 03:50 070 11 5.4-2.0
2014-Oct-22 02:50 080 11 5.4-2.0
2014-Oct-22 01:50 090 13 5.4-2.0
2014-Oct-22 00:50 090 11 5.4-2.0
2014-Oct-21 23:50 080 12 5.4-2.0
2014-Oct-21 22:50 070 11 5.4-1.0
2014-Oct-21 21:50 070 8 5.4-1.0
2014-Oct-21 20:50 070 10 5.4-0.0
2014-Oct-21 19:50 070 7 5.4-0.0
2014-Oct-21 18:50 070 12 5.4 1.0
2014-Oct-21 17:50 060 9 5.4 1.0
2014-Oct-21 16:50 050 9 5.4 2.0
2014-Oct-21 15:50 050 10 5.4 2.0
2014-Oct-21 14:50 030 6 5.4 2.0
2014-Oct-21 13:50 050 8 5.4 3.0
2014-Oct-21 12:50 060 6 5.4 3.0
2014-Oct-21 11:50 050 7 5.4 3.0
2014-Oct-21 10:50 070 7 5.4 3.0
2014-Oct-21 09:50 060 8 5.4 3.0
2014-Oct-21 08:50 060 8 5.4 3.0
2014-Oct-21 07:50 050 9 5.4 3.0
2014-Oct-21 06:50 030 6 5.4 3.0
2014-Oct-21 05:50 030 7 5.4 3.0
2014-Oct-21 04:50 020 8 5.4 3.0
2014-Oct-21 03:50 030 8 5.4 3.0
2014-Oct-21 02:50 030 8 5.4 4.0
2014-Oct-21 01:50 030 11 5.4 4.0
2014-Oct-21 00:50 020 10 5.4 4.0
2014-Oct-20 23:50 360 9 5.4 5.0